FW6625 Weather Reports


time (UTC)temp
C
wind
direction
speed
KPH
gust
KPH
rain 1hr
cm
rain 24hr
cm
rain mn
cm
humidity
%
barometer
mb
20260510104549 23 114 1.6 9.7 0.00 0.00 0.00 96 1011.4
20260510103049 23 0 1.6 8.0 0.00 0.00 0.00 96 1011.4
20260510101541 23 122 3.2 8.0 0.00 0.00 0.00 96 1011.6
20260510100040 23 56 1.6 9.7 0.00 0.00 0.00 96 1011.7
20260510094537 23 58 3.2 8.0 0.00 0.00 0.00 96 1011.6
20260510093043 23 64 0.0 3.2 0.00 0.00 0.00 96 1011.7
20260510091543 23 0 0.0 1.6 0.00 0.00 0.00 96 1011.6
20260510090054 23 111 0.0 6.4 0.00 0.00 0.00 96 1011.5
20260510084544 23 131 0.0 4.8 0.00 0.00 0.00 95 1011.5
20260510083045 23 0 0.0 4.8 0.00 0.00 0.00 95 1011.4
20260510081551 23 0 0.0 6.4 0.00 0.00 0.00 95 1011.4
20260510080038 23 0 0.0 6.4 0.00 0.00 0.00 95 1011.4
20260510074538 23 0 3.2 8.0 0.00 0.00 0.00 95 1011.2
20260510073052 23 88 1.6 9.7 0.00 0.00 0.00 95 1011.2
20260510071543 23 75 1.6 9.7 0.00 0.00 0.00 95 1011.4
20260510070041 23 38 1.6 6.4 0.00 0.00 0.00 95 1011.7
20260510064551 23 108 0.0 4.8 0.00 0.00 0.00 95 1011.8
20260510063042 23 95 0.0 8.0 0.00 0.00 0.00 94 1011.9
20260510061544 23 75 3.2 11.3 0.00 0.00 0.00 94 1012.0
20260510060048 23 93 3.2 9.7 0.00 0.00 0.00 94 1012.2
20260510054541 23 119 3.2 9.7 0.00 0.00 0.00 94 1012.1
20260510053050 23 110 3.2 8.0 0.00 0.00 0.00 94 1012.0
20260510051543 23 0 0.0 6.4 0.00 0.00 0.00 93 1012.3
20260510050037 23 0 0.0 1.6 0.00 0.00 0.00 93 1012.3
20260510044555 23 338 1.6 4.8 0.00 0.00 0.00 93 1012.4
20260510043052 23 0 0.0 3.2 0.00 0.00 0.00 92 1012.3
20260510041543 23 65 1.6 9.7 0.00 0.00 0.00 92 1011.9
20260510040044 23 94 1.6 8.0 0.00 0.00 0.00 92 1012.1
20260510034540 23 58 0.0 8.0 0.00 0.00 0.00 92 1012.0
20260510033054 23 0 0.0 6.4 0.00 0.00 0.00 91 1011.8
20260510031544 23 337 0.0 4.8 0.00 0.00 0.00 89 1011.9
20260510030051 23 0 0.0 3.2 0.00 0.00 0.00 89 1011.4
20260510024542 23 0 0.0 4.8 0.00 0.00 0.00 88 1011.0
20260510023038 23 101 0.0 4.8 0.00 0.00 0.00 88 1010.6
20260510021537 23 0 0.0 3.2 0.00 0.00 0.00 88 1010.2
20260510020044 24 131 0.0 8.0 0.00 0.00 0.00 89 1010.0
20260510014545 24 0 0.0 6.4 0.00 0.00 0.00 90 1009.9
20260510013043 24 0 0.0 3.2 0.00 0.00 0.00 89 1009.8
20260510011540 25 114 0.0 3.2 0.00 0.00 0.00 88 1009.7
20260510010037 25 0 0.0 11.3 0.00 0.00 0.00 87 1009.7
20260510004541 25 106 1.6 12.9 0.00 0.00 0.00 86 1009.5
20260510003046 26 0 3.2 12.9 0.00 0.00 0.00 85 1009.3
20260510001542 26 147 1.6 16.1 0.00 0.00 0.00 83 1009.4
20260510000049 27 99 1.6 14.5 0.00 0.00 0.00 81 1009.3
20260509234552 27 208 3.2 14.5 0.00 0.00 0.00 80 1009.2
20260509233043 27 229 3.2 11.3 0.00 0.00 0.00 79 1009.3
20260509231544 27 115 4.8 16.1 0.00 0.00 0.00 81 1009.2
20260509230045 28 140 8.0 14.5 0.00 0.00 0.00 77 1009.1
20260509224536 29 171 6.4 16.1 0.00 0.00 0.00 72 1008.8
20260509223047 30 119 6.4 17.7 0.00 0.00 0.00 64 1008.7
20260509221542 33 221 3.2 9.7 0.00 0.00 0.00 53 1008.6
20260509220040 33 0 1.6 8.0 0.00 0.00 0.00 52 1008.4
20260509214539 33 138 1.6 9.7 0.00 0.00 0.00 53 1008.5
20260509213038 33 188 3.2 14.5 0.00 0.00 0.00 52 1008.5
20260509211621 33 214 3.2 9.7 0.00 0.00 0.00 49 1008.6
20260509210043 33 184 1.6 11.3 0.00 0.00 0.00 51 1008.6
20260509204542 33 228 1.6 11.3 0.00 0.00 0.00 48 1008.6
20260509203042 33 0 1.6 11.3 0.00 0.00 0.00 51 1008.6
20260509201547 33 156 1.6 9.7 0.00 0.00 0.00 50 1008.7
20260509200050 33 235 0.0 11.3 0.00 0.00 0.00 51 1009.0
20260509194543 32 300 1.6 16.1 0.00 0.00 0.00 52 1009.1
20260509193102 33 214 3.2 12.9 0.00 0.00 0.00 53 1009.3
20260509191542 32 198 4.8 14.5 0.00 0.00 0.00 51 1009.6
20260509190038 32 200 1.6 11.3 0.00 0.00 0.00 57 1009.6
20260509184555 32 290 0.0 4.8 0.00 0.00 0.00 56 1009.6
20260509183042 31 150 0.0 4.8 0.00 0.00 0.00 58 1009.6
20260509181545 31 297 0.0 9.7 0.00 0.00 0.00 58 1009.5
20260509180041 30 0 1.6 8.0 0.00 0.00 0.00 61 1009.8
20260509174538 29 0 0.0 3.2 0.00 0.00 0.00 75 1009.8
20260509173043 28 0 0.0 3.2 0.00 0.00 0.00 76 1010.0
20260509171544 27 0 0.0 0.0 0.00 0.00 0.00 81 1010.2
20260509170044 26 307 0.0 4.8 0.00 0.00 0.00 84 1010.4
20260509164541 26 306 0.0 4.8 0.00 0.00 0.00 86 1010.7
20260509163039 25 319 1.6 3.2 0.00 0.00 0.00 87 1010.8
20260509161537 25 130 0.0 4.8 0.00 0.00 0.00 90 1010.7
20260509160039 25 0 0.0 6.4 0.00 0.00 0.00 91 1010.9
20260509154548 24 58 1.6 4.8 0.00 0.00 0.00 91 1010.4
20260509153040 24 94 0.0 3.2 0.00 0.00 0.00 93 1011.2
20260509151541 23 0 0.0 3.2 0.00 0.00 0.00 95 1011.6
20260509150041 23 201 1.6 17.7 0.00 0.00 0.00 97 1011.5
20260509144612 23 216 0.0 4.8 0.00 0.00 0.00 98 1011.1
20260509143048 23 232 4.8 20.9 0.00 0.00 0.00 98 1008.8
20260509141545 23 60 3.2 12.9 0.00 0.00 0.00 98 1009.2
20260509140042 23 115 3.2 12.9 0.00 0.00 0.00 98 1010.2
20260509134543 23 0 0.0 4.8 0.00 0.00 0.00 98 1011.5
20260509133038 23 0 0.0 3.2 0.00 0.00 0.00 98 1011.1
20260509131541 23 0 0.0 0.0 0.00 0.00 0.00 98 1011.0
20260509130035 23 0 0.0 1.6 0.00 0.00 0.00 98 1011.0
20260509124600 23 237 0.0 0.0 0.00 0.03 0.00 98 1011.0
20260509123043 23 0 0.0 1.6 0.00 0.03 0.00 98 1011.4
20260509121543 22 0 0.0 0.0 0.00 0.03 0.00 98 1011.4
20260509120039 22 0 0.0 1.6 0.00 0.03 0.00 98 1011.8
20260509114544 22 0 0.0 1.6 0.00 0.03 0.00 98 1011.3
20260509113037 22 0 0.0 1.6 0.00 0.03 0.00 98 1010.7
20260509111541 22 0 0.0 0.0 0.00 0.03 0.00 98 1009.9
20260509110040 22 0 0.0 1.6 0.00 0.03 0.00 98 1009.7